| time (UTC) | temp F | wind direction | speed knots | gust knots | rain 1hr in | rain 24hr in | rain mn in | humidity % | barometer mb |
| 20260508060020 | 45 | 247 | 0.0 | 0.9 | 0.00 | 0.00 | 0.00 | 70 | 1008.6 |
| 20260508055020 | 46 | 0.0 | 0.0 | 0.00 | 0.00 | 0.00 | 67 | 1008.5 | |
| 20260508054020 | 46 | 264 | 0.0 | 1.7 | 0.00 | 0.00 | 0.00 | 66 | 1008.6 |
| 20260508053018 | 46 | 0 | 1.7 | 2.6 | 0.00 | 0.00 | 0.00 | 66 | 1008.6 |
| 20260508052018 | 46 | 336 | 1.7 | 3.5 | 0.00 | 0.00 | 0.00 | 63 | 1008.6 |
| 20260508051040 | 46 | 336 | 0.9 | 2.6 | 0.00 | 0.00 | 0.00 | 62 | 1008.6 |
| 20260508050019 | 46 | 344 | 0.9 | 3.5 | 0.00 | 0.00 | 0.00 | 62 | 1008.6 |
| 20260508045019 | 46 | 340 | 0.9 | 3.5 | 0.00 | 0.00 | 0.00 | 63 | 1008.7 |
| 20260508044019 | 46 | 346 | 1.7 | 2.6 | 0.00 | 0.00 | 0.00 | 63 | 1008.7 |
| 20260508043019 | 46 | 343 | 1.7 | 1.7 | 0.00 | 0.00 | 0.00 | 63 | 1008.7 |
| 20260508042019 | 47 | 335 | 0.9 | 2.6 | 0.00 | 0.00 | 0.00 | 63 | 1008.7 |
| 20260508041019 | 47 | 344 | 0.9 | 1.7 | 0.00 | 0.00 | 0.00 | 62 | 1008.6 |
| 20260508040017 | 46 | 324 | 1.7 | 3.5 | 0.00 | 0.00 | 0.00 | 65 | 1008.6 |
| 20260508035021 | 47 | 333 | 0.9 | 1.7 | 0.00 | 0.00 | 0.00 | 65 | 1008.6 |
| 20260508034019 | 47 | 346 | 0.9 | 1.7 | 0.00 | 0.00 | 0.00 | 62 | 1008.6 |
| 20260508033017 | 47 | 352 | 0.9 | 2.6 | 0.00 | 0.00 | 0.00 | 61 | 1008.6 |
| 20260508032041 | 47 | 347 | 1.7 | 2.6 | 0.00 | 0.00 | 0.00 | 60 | 1008.6 |
| 20260508031017 | 47 | 344 | 1.7 | 2.6 | 0.00 | 0.00 | 0.00 | 60 | 1008.6 |
| 20260508030018 | 47 | 342 | 1.7 | 3.5 | 0.00 | 0.00 | 0.00 | 60 | 1008.6 |
| 20260508025017 | 47 | 351 | 1.7 | 3.5 | 0.00 | 0.00 | 0.00 | 61 | 1008.6 |
| 20260508024018 | 47 | 348 | 1.7 | 2.6 | 0.00 | 0.00 | 0.00 | 61 | 1008.7 |
| 20260508023018 | 47 | 348 | 1.7 | 2.6 | 0.00 | 0.00 | 0.00 | 59 | 1008.7 |
| 20260508022019 | 48 | 342 | 1.7 | 3.5 | 0.00 | 0.00 | 0.00 | 58 | 1008.6 |
| 20260508021018 | 48 | 348 | 1.7 | 3.5 | 0.00 | 0.00 | 0.00 | 57 | 1008.6 |
| 20260508020018 | 48 | 340 | 1.7 | 3.5 | 0.00 | 0.00 | 0.00 | 59 | 1008.6 |
| 20260508015019 | 48 | 344 | 1.7 | 2.6 | 0.00 | 0.00 | 0.00 | 58 | 1008.5 |
| 20260508014019 | 49 | 342 | 1.7 | 2.6 | 0.00 | 0.00 | 0.00 | 56 | 1008.4 |
| 20260508013020 | 49 | 329 | 1.7 | 4.3 | 0.00 | 0.00 | 0.00 | 56 | 1008.4 |
| 20260508012019 | 48 | 335 | 1.7 | 4.3 | 0.00 | 0.00 | 0.00 | 56 | 1008.3 |
| 20260508011016 | 49 | 321 | 0.9 | 1.7 | 0.00 | 0.00 | 0.00 | 56 | 1008.3 |
| 20260508010039 | 49 | 317 | 1.7 | 2.6 | 0.00 | 0.00 | 0.00 | 54 | 1008.3 |
| 20260508005020 | 49 | 326 | 1.7 | 2.6 | 0.00 | 0.00 | 0.00 | 52 | 1008.2 |
| 20260508004037 | 50 | 326 | 2.6 | 4.3 | 0.00 | 0.00 | 0.00 | 51 | 1008.1 |
| 20260508003020 | 50 | 326 | 2.6 | 4.3 | 0.00 | 0.00 | 0.00 | 50 | 1008.0 |
| 20260508002020 | 50 | 324 | 3.5 | 7.0 | 0.00 | 0.00 | 0.00 | 49 | 1007.9 |
| 20260508001019 | 50 | 321 | 3.5 | 7.0 | 0.00 | 0.00 | 0.00 | 47 | 1007.9 |
| 20260508000017 | 51 | 319 | 3.5 | 7.0 | 0.00 | 0.00 | 0.00 | 47 | 1007.8 |
| 20260507235018 | 51 | 323 | 4.3 | 9.6 | 0.00 | 0.00 | 0.00 | 47 | 1007.8 |
| 20260507234018 | 51 | 299 | 2.6 | 7.0 | 0.00 | 0.00 | 0.00 | 45 | 1007.7 |
| 20260507233018 | 51 | 329 | 3.5 | 7.0 | 0.00 | 0.00 | 0.00 | 46 | 1007.7 |
| 20260507232018 | 52 | 320 | 4.3 | 7.8 | 0.00 | 0.00 | 0.00 | 45 | 1007.6 |
| 20260507231018 | 52 | 318 | 2.6 | 6.1 | 0.00 | 0.00 | 0.00 | 44 | 1007.6 |
| 20260507230019 | 52 | 328 | 4.3 | 7.8 | 0.00 | 0.00 | 0.00 | 44 | 1007.6 |
| 20260507225019 | 52 | 319 | 5.2 | 10.4 | 0.00 | 0.00 | 0.00 | 44 | 1007.6 |
| 20260507224019 | 51 | 322 | 3.5 | 7.8 | 0.00 | 0.00 | 0.00 | 47 | 1007.6 |
| 20260507223019 | 51 | 306 | 5.2 | 10.4 | 0.00 | 0.00 | 0.00 | 47 | 1007.7 |
| 20260507222019 | 51 | 326 | 4.3 | 7.8 | 0.00 | 0.00 | 0.00 | 46 | 1007.7 |
| 20260507221020 | 52 | 282 | 4.3 | 9.6 | 0.00 | 0.00 | 0.00 | 45 | 1007.6 |
| 20260507220058 | 52 | 314 | 4.3 | 8.7 | 0.00 | 0.00 | 0.00 | 46 | 1007.6 |
| 20260507215040 | 51 | 318 | 4.3 | 8.7 | 0.00 | 0.00 | 0.00 | 46 | 1007.5 |
| 20260507214020 | 51 | 297 | 4.3 | 8.7 | 0.00 | 0.00 | 0.00 | 46 | 1007.5 |
| 20260507213017 | 52 | 316 | 3.5 | 7.8 | 0.00 | 0.00 | 0.00 | 45 | 1007.4 |
| 20260507212020 | 52 | 293 | 5.2 | 9.6 | 0.00 | 0.00 | 0.00 | 44 | 1007.3 |
| 20260507211019 | 52 | 299 | 5.2 | 13.0 | 0.00 | 0.00 | 0.00 | 44 | 1007.3 |
| 20260507210018 | 52 | 298 | 7.0 | 13.9 | 0.00 | 0.00 | 0.00 | 43 | 1007.3 |
| 20260507205019 | 53 | 305 | 5.2 | 13.0 | 0.00 | 0.00 | 0.00 | 44 | 1007.2 |
| 20260507204039 | 53 | 317 | 6.1 | 13.9 | 0.00 | 0.00 | 0.00 | 42 | 1007.1 |
| 20260507203018 | 52 | 313 | 5.2 | 11.3 | 0.00 | 0.00 | 0.00 | 47 | 1007.0 |
| 20260507202018 | 52 | 323 | 5.2 | 13.0 | 0.00 | 0.00 | 0.00 | 47 | 1007.0 |
| 20260507201019 | 52 | 306 | 5.2 | 12.2 | 0.00 | 0.00 | 0.00 | 46 | 1007.1 |
| 20260507200020 | 52 | 313 | 4.3 | 12.2 | 0.00 | 0.00 | 0.00 | 45 | 1007.0 |
| 20260507195019 | 52 | 308 | 5.2 | 10.4 | 0.00 | 0.00 | 0.00 | 44 | 1007.1 |
| 20260507194020 | 52 | 304 | 6.1 | 13.0 | 0.00 | 0.00 | 0.00 | 46 | 1007.2 |
| 20260507193019 | 52 | 311 | 6.1 | 12.2 | 0.00 | 0.00 | 0.00 | 47 | 1007.1 |
| 20260507192019 | 52 | 307 | 4.3 | 8.7 | 0.00 | 0.00 | 0.00 | 47 | 1007.1 |
| 20260507191019 | 51 | 307 | 5.2 | 12.2 | 0.00 | 0.00 | 0.00 | 48 | 1007.2 |
| 20260507190039 | 51 | 303 | 5.2 | 14.8 | 0.00 | 0.00 | 0.00 | 45 | 1007.2 |
| 20260507185041 | 51 | 318 | 4.3 | 9.6 | 0.00 | 0.00 | 0.00 | 45 | 1007.2 |
| 20260507184017 | 52 | 264 | 3.5 | 7.8 | 0.00 | 0.00 | 0.00 | 44 | 1007.1 |
| 20260507183017 | 52 | 293 | 3.5 | 9.6 | 0.00 | 0.00 | 0.00 | 45 | 1007.1 |
| 20260507182041 | 50 | 299 | 4.3 | 10.4 | 0.00 | 0.00 | 0.00 | 46 | 1007.1 |
| 20260507181017 | 51 | 311 | 5.2 | 10.4 | 0.00 | 0.00 | 0.00 | 46 | 1007.1 |
| 20260507180040 | 51 | 251 | 4.3 | 9.6 | 0.00 | 0.00 | 0.00 | 45 | 1007.1 |
| 20260507175021 | 50 | 282 | 4.3 | 10.4 | 0.00 | 0.00 | 0.00 | 47 | 1006.9 |
| 20260507174018 | 51 | 292 | 5.2 | 11.3 | 0.00 | 0.00 | 0.00 | 46 | 1006.9 |
| 20260507173019 | 52 | 295 | 6.1 | 13.9 | 0.00 | 0.00 | 0.00 | 44 | 1006.9 |
| 20260507172038 | 51 | 252 | 4.3 | 12.2 | 0.00 | 0.00 | 0.00 | 44 | 1007.0 |
| 20260507171018 | 51 | 262 | 4.3 | 11.3 | 0.00 | 0.00 | 0.00 | 45 | 1007.0 |
| 20260507170020 | 51 | 313 | 4.3 | 9.6 | 0.00 | 0.00 | 0.00 | 45 | 1007.1 |
| 20260507165017 | 51 | 302 | 5.2 | 11.3 | 0.00 | 0.00 | 0.00 | 46 | 1007.1 |
| 20260507164020 | 52 | 270 | 4.3 | 12.2 | 0.00 | 0.00 | 0.00 | 45 | 1007.3 |
| 20260507163019 | 52 | 286 | 4.3 | 9.6 | 0.00 | 0.00 | 0.00 | 45 | 1007.2 |
| 20260507162019 | 52 | 285 | 5.2 | 11.3 | 0.00 | 0.00 | 0.00 | 45 | 1007.2 |
| 20260507161037 | 51 | 217 | 5.2 | 10.4 | 0.00 | 0.00 | 0.00 | 49 | 1007.3 |
| 20260507160020 | 51 | 223 | 4.3 | 9.6 | 0.00 | 0.00 | 0.00 | 52 | 1007.3 |
| 20260507155019 | 51 | 262 | 4.3 | 12.2 | 0.00 | 0.00 | 0.00 | 54 | 1007.4 |
| 20260507154017 | 50 | 277 | 5.2 | 11.3 | 0.00 | 0.00 | 0.00 | 54 | 1007.4 |
| 20260507153017 | 49 | 239 | 4.3 | 10.4 | 0.00 | 0.00 | 0.00 | 57 | 1007.4 |
| 20260507152100 | 49 | 268 | 5.2 | 10.4 | 0.00 | 0.00 | 0.00 | 57 | 1007.4 |
| 20260507151020 | 49 | 242 | 4.3 | 11.3 | 0.00 | 0.00 | 0.00 | 57 | 1007.3 |
| 20260507150018 | 48 | 286 | 3.5 | 8.7 | 0.00 | 0.00 | 0.00 | 59 | 1007.4 |
| 20260507145019 | 48 | 252 | 3.5 | 8.7 | 0.00 | 0.00 | 0.00 | 60 | 1007.4 |
| 20260507144020 | 48 | 216 | 4.3 | 7.8 | 0.00 | 0.00 | 0.00 | 61 | 1007.4 |
| 20260507143019 | 48 | 220 | 4.3 | 10.4 | 0.00 | 0.00 | 0.00 | 61 | 1007.4 |
| 20260507142018 | 48 | 211 | 4.3 | 7.8 | 0.00 | 0.00 | 0.00 | 61 | 1007.4 |
| 20260507141018 | 47 | 216 | 3.5 | 7.0 | 0.00 | 0.00 | 0.00 | 62 | 1007.4 |
| 20260507140019 | 47 | 230 | 3.5 | 9.6 | 0.00 | 0.00 | 0.00 | 62 | 1007.4 |
| 20260507135039 | 46 | 213 | 4.3 | 9.6 | 0.00 | 0.00 | 0.00 | 63 | 1007.5 |
| 20260507134019 | 46 | 219 | 4.3 | 7.8 | 0.00 | 0.00 | 0.00 | 64 | 1007.5 |
| 20260507133019 | 47 | 221 | 4.3 | 8.7 | 0.00 | 0.00 | 0.00 | 63 | 1007.5 |
| 20260507132019 | 46 | 240 | 3.5 | 7.0 | 0.00 | 0.00 | 0.00 | 64 | 1007.5 |
| 20260507131040 | 45 | 203 | 4.3 | 9.6 | 0.00 | 0.00 | 0.00 | 64 | 1007.5 |
| 20260507130017 | 45 | 260 | 3.5 | 9.6 | 0.00 | 0.00 | 0.00 | 65 | 1007.7 |
| 20260507125020 | 45 | 266 | 4.3 | 13.9 | 0.00 | 0.00 | 0.00 | 65 | 1007.7 |
| 20260507124017 | 45 | 287 | 4.3 | 11.3 | 0.00 | 0.00 | 0.00 | 65 | 1007.6 |
| 20260507123017 | 45 | 280 | 4.3 | 9.6 | 0.00 | 0.00 | 0.00 | 66 | 1007.7 |
| 20260507122021 | 43 | 245 | 3.5 | 7.0 | 0.00 | 0.00 | 0.00 | 68 | 1007.7 |
| 20260507121040 | 43 | 266 | 3.5 | 8.7 | 0.00 | 0.00 | 0.00 | 69 | 1007.7 |
| 20260507120017 | 44 | 254 | 3.5 | 6.1 | 0.00 | 0.00 | 0.00 | 69 | 1007.6 |
| 20260507115019 | 44 | 242 | 3.5 | 7.8 | 0.00 | 0.00 | 0.00 | 69 | 1007.7 |
| 20260507114017 | 44 | 276 | 5.2 | 13.9 | 0.00 | 0.00 | 0.00 | 69 | 1007.7 |
| 20260507113018 | 45 | 246 | 3.5 | 11.3 | 0.00 | 0.00 | 0.00 | 68 | 1007.7 |
| 20260507112018 | 45 | 253 | 3.5 | 7.0 | 0.00 | 0.00 | 0.00 | 69 | 1007.5 |
| 20260507111018 | 46 | 224 | 3.5 | 7.8 | 0.00 | 0.00 | 0.00 | 78 | 1007.3 |
| 20260507110018 | 46 | 217 | 3.5 | 7.8 | 0.00 | 0.00 | 0.00 | 80 | 1007.1 |
| 20260507105018 | 45 | 202 | 2.6 | 5.2 | 0.00 | 0.00 | 0.00 | 81 | 1007.0 |
| 20260507104039 | 45 | 211 | 3.5 | 7.8 | 0.00 | 0.00 | 0.00 | 81 | 1006.9 |
| 20260507103040 | 45 | 227 | 3.5 | 7.0 | 0.00 | 0.00 | 0.00 | 84 | 1006.8 |
| 20260507102025 | 45 | 261 | 2.6 | 7.0 | 0.00 | 0.00 | 0.00 | 85 | 1007.0 |
| 20260507101020 | 45 | 256 | 2.6 | 5.2 | 0.00 | 0.00 | 0.00 | 82 | 1007.0 |
| 20260507100020 | 46 | 209 | 3.5 | 6.1 | 0.00 | 0.00 | 0.00 | 83 | 1007.0 |
| 20260507095019 | 46 | 212 | 2.6 | 5.2 | 0.00 | 0.00 | 0.00 | 84 | 1007.1 |
| 20260507094020 | 46 | 221 | 3.5 | 7.0 | 0.00 | 0.00 | 0.00 | 85 | 1007.1 |
| 20260507093021 | 46 | 243 | 2.6 | 7.0 | 0.00 | 0.00 | 0.00 | 86 | 1007.0 |
| 20260507092019 | 46 | 237 | 2.6 | 5.2 | 0.00 | 0.00 | 0.00 | 86 | 1006.9 |
| 20260507091020 | 46 | 200 | 2.6 | 6.1 | 0.00 | 0.00 | 0.00 | 86 | 1006.9 |
| 20260507090020 | 46 | 245 | 2.6 | 5.2 | 0.00 | 0.00 | 0.00 | 86 | 1006.8 |
| 20260507085024 | 46 | 217 | 2.6 | 4.3 | 0.00 | 0.00 | 0.00 | 87 | 1006.8 |
| 20260507084025 | 46 | 214 | 1.7 | 2.6 | 0.00 | 0.00 | 0.00 | 87 | 1006.9 |
| 20260507083021 | 46 | 222 | 2.6 | 7.0 | 0.00 | 0.00 | 0.00 | 87 | 1006.9 |
| 20260507082107 | 46 | 235 | 1.7 | 4.3 | 0.00 | 0.00 | 0.00 | 87 | 1007.1 |
| 20260507081027 | 46 | 224 | 1.7 | 4.3 | 0.00 | 0.00 | 0.00 | 87 | 1007.2 |
| 20260507080021 | 46 | 199 | 1.7 | 6.1 | 0.00 | 0.00 | 0.00 | 86 | 1007.2 |
| 20260507075021 | 46 | 212 | 2.6 | 3.5 | 0.00 | 0.00 | 0.00 | 86 | 1007.3 |
| 20260507074027 | 46 | 251 | 2.6 | 4.3 | 0.00 | 0.00 | 0.00 | 86 | 1007.3 |
| 20260507073026 | 46 | 208 | 1.7 | 4.3 | 0.00 | 0.00 | 0.00 | 85 | 1007.3 |
| 20260507072046 | 46 | 236 | 0.9 | 3.5 | 0.00 | 0.00 | 0.00 | 85 | 1007.3 |
| 20260507071026 | 46 | 238 | 1.7 | 4.3 | 0.00 | 0.00 | 0.00 | 84 | 1007.2 |
| 20260507070047 | 46 | 234 | 1.7 | 3.5 | 0.00 | 0.00 | 0.00 | 84 | 1007.2 |
| 20260507065021 | 46 | 267 | 2.6 | 7.0 | 0.00 | 0.00 | 0.00 | 83 | 1007.2 |
| 20260507064027 | 46 | 275 | 2.6 | 4.3 | 0.00 | 0.00 | 0.00 | 83 | 1007.3 |
| 20260507063022 | 46 | 238 | 2.6 | 6.1 | 0.00 | 0.00 | 0.00 | 82 | 1007.3 |
| 20260507062022 | 46 | 270 | 2.6 | 6.1 | 0.00 | 0.00 | 0.00 | 83 | 1007.4 |
| 20260507061027 | 46 | 292 | 1.7 | 5.2 | 0.00 | 0.00 | 0.00 | 83 | 1007.5 |